sat.trackr.live / text

‹ back to catalog

STARLINK-2704

NORAD 48643 · 2021-044F

PAYLOAD ACTIVE UNKNOWN

§ Identity

Operator
Country
US
Launch date
2021-05-26
Launch site
AFETR
Launch vehicle
Mass (kg)
RCS (m²)

Purposes: comms

External: N2YO · Heavens-Above · Gunter

§ Orbital elements

Epoch: 2026-09-15T10:29:08.764800Z

Period
94.01 min
Inclination
53.1594°
Eccentricity
0.0001256
Mean motion
15.31714147 rev/d
Perigee alt
469.8 km
Apogee alt
471.6 km
Semi-major
6,848.8 km
B*
9.7017e-5
RAAN
310.8295°
Arg perigee
85.6151°
Mean anomaly
274.4994°
Rev number
29,290

§ Raw data

STARLINK-27041 48643U 21044F   26258.43690700  .00002648  00000+0  97017-4 0  99952 48643  53.1594 310.8295 0001256  85.6151 274.4994 15.31714147292907

JSON: /api/v1/satellites/48643 · /tle

For live sub-satellite position, see the globe view (requires WebGL).

§ Visibility from observer

Set your observer location to see the next 7 days of passes ≥ 10°. The values pass through the URL so the page stays shareable.

No JS? Fill the form by hand. The geolocation button needs JavaScript.